Time,TemperatureF,DewpointF,PressureIn,WindDirection,WindDirectionDegrees,WindSpeedMPH,WindSpeedGustMPH,Humidity,HourlyPrecipIn,Conditions,Clouds,dailyrainin,SoftwareType,DateUTC
2013-02-02 17:03:00,9.0,0.0,-100.00,SE,140,0.0,3.0,62,0.00,,,0.00,,2013-02-02 17:03:00,
2013-02-02 17:11:00,9.0,-2.0,-100.00,SSW,210,2.0,3.0,60,0.00,,,0.00,,2013-02-02 17:11:00,
2013-02-02 17:22:00,9.0,-2.0,-100.00,SW,235,2.0,4.0,57,0.00,,,0.00,,2013-02-02 17:22:00,
2013-02-02 17:32:00,9.0,-2.0,-100.00,ENE,65,1.0,4.0,57,0.00,,,0.00,,2013-02-02 17:32:00,
2013-02-02 17:41:00,9.0,-4.0,-100.00,SW,235,2.0,5.0,57,0.00,,,0.00,,2013-02-02 17:41:00,
2013-02-02 17:52:00,11.0,-2.0,-100.00,WNW,285,0.0,4.0,56,0.00,,,0.00,,2013-02-02 17:52:00,
2013-02-02 18:02:00,11.0,-2.0,-100.00,NNE,20,1.0,4.0,54,0.00,,,0.00,,2013-02-02 18:02:00,
2013-02-02 18:12:00,12.0,-2.0,-100.00,West,265,4.0,5.0,53,0.00,,,0.00,,2013-02-02 18:12:00,
2013-02-02 18:22:00,11.0,-2.0,-100.00,NE,40,2.0,5.0,53,0.00,,,0.00,,2013-02-02 18:22:00,
2013-02-02 18:32:00,13.0,0.0,-100.00,NW,310,1.0,3.0,53,0.00,,,0.00,,2013-02-02 18:32:00,
2013-02-02 18:42:00,11.0,-2.0,-100.00,WSW,255,2.0,7.0,51,0.00,,,0.00,,2013-02-02 18:42:00,
2013-02-02 18:52:00,12.0,-2.0,-100.00,NNE,20,1.0,4.0,51,0.00,,,0.00,,2013-02-02 18:52:00,
2013-02-02 19:02:00,13.0,-2.0,-100.00,SSW,200,1.0,4.0,51,0.00,,,0.00,,2013-02-02 19:02:00,
2013-02-02 19:12:00,13.0,-2.0,-100.00,NNW,330,1.0,3.0,50,0.00,,,0.00,,2013-02-02 19:12:00,
2013-02-02 19:21:00,13.0,-2.0,-100.00,North,0,1.0,5.0,50,0.00,,,0.00,,2013-02-02 19:21:00,
2013-02-02 19:32:00,11.0,-2.0,-100.00,North,5,1.0,4.0,52,0.00,,,0.00,,2013-02-02 19:32:00,
2013-02-02 19:42:00,12.0,-2.0,-100.00,North,10,2.0,5.0,53,0.00,,,0.00,,2013-02-02 19:42:00,
2013-02-02 19:51:00,13.0,-2.0,-100.00,SW,235,4.0,4.0,52,0.00,,,0.00,,2013-02-02 19:51:00,
2013-02-02 20:01:00,14.0,0.0,-100.00,South,170,2.0,4.0,50,0.00,,,0.00,,2013-02-02 20:01:00,
2013-02-02 20:11:00,14.0,-2.0,-100.00,South,185,4.0,6.0,50,0.00,,,0.00,,2013-02-02 20:11:00,
2013-02-02 20:21:00,13.0,-2.0,-100.00,SSW,200,3.0,7.0,50,0.00,,,0.00,,2013-02-02 20:21:00,
2013-02-02 20:32:00,12.0,-2.0,-100.00,South,170,3.0,7.0,51,0.00,,,0.00,,2013-02-02 20:32:00,
2013-02-02 20:41:00,11.0,-2.0,-100.00,South,175,2.0,9.0,53,0.00,,,0.00,,2013-02-02 20:41:00,
2013-02-02 20:52:00,11.0,-2.0,-100.00,South,180,6.0,9.0,53,0.00,,,0.00,,2013-02-02 20:52:00,
2013-02-02 21:02:00,13.0,-2.0,-100.00,SW,215,4.0,7.0,52,0.00,,,0.00,,2013-02-02 21:02:00,
2013-02-02 21:11:00,13.0,-2.0,-100.00,SSW,200,2.0,6.0,52,0.00,,,0.00,,2013-02-02 21:11:00,
2013-02-02 21:21:00,12.0,-2.0,-100.00,WSW,245,4.0,6.0,52,0.00,,,0.00,,2013-02-02 21:21:00,
2013-02-02 21:32:00,12.0,-2.0,-100.00,SSW,210,2.0,8.0,52,0.00,,,0.00,,2013-02-02 21:32:00,
2013-02-02 21:42:00,11.0,-2.0,-100.00,SSW,210,4.0,7.0,53,0.00,,,0.00,,2013-02-02 21:42:00,
2013-02-02 21:51:00,10.0,-2.0,-100.00,SW,225,4.0,9.0,54,0.00,,,0.00,,2013-02-02 21:51:00,
2013-02-02 22:02:00,10.0,-2.0,-100.00,WSW,245,6.0,9.0,55,0.00,,,0.00,,2013-02-02 22:02:00,
2013-02-02 22:11:00,10.0,-2.0,-100.00,SW,215,4.0,9.0,55,0.00,,,0.00,,2013-02-02 22:11:00,
2013-02-02 22:21:00,9.0,-4.0,-100.00,WSW,245,3.0,9.0,56,0.00,,,0.00,,2013-02-02 22:21:00,
2013-02-02 22:32:00,9.0,-2.0,-100.00,SSW,210,4.0,8.0,56,0.00,,,0.00,,2013-02-02 22:32:00,
2013-02-02 22:42:00,9.0,-2.0,-100.00,SSW,210,4.0,8.0,56,0.00,,,0.00,,2013-02-02 22:42:00,
2013-02-02 22:52:00,9.0,-2.0,-100.00,SSW,210,4.0,8.0,56,0.00,,,0.00,,2013-02-02 22:52:00,
2013-02-02 23:02:00,9.0,-2.0,-100.00,SSW,210,4.0,8.0,56,0.00,,,0.00,,2013-02-02 23:02:00,